Year,Month,Day,Hour,Minute,Value (Times are PST for temperature in C)
2018,10,19,00,00,6.40
2018,10,19,00,01,6.40
2018,10,19,00,02,6.40
2018,10,19,00,03,6.40
2018,10,19,00,04,6.40
2018,10,19,00,05,6.40
2018,10,19,00,06,6.40
2018,10,19,00,07,6.40
2018,10,19,00,08,6.40
2018,10,19,00,09,6.40
2018,10,19,00,10,6.40
2018,10,19,00,11,6.40
2018,10,19,00,12,6.40
2018,10,19,00,13,6.40
2018,10,19,00,14,6.30
2018,10,19,00,15,6.30
2018,10,19,00,16,6.30
2018,10,19,00,17,6.30
2018,10,19,00,18,6.30
2018,10,19,00,19,6.30
2018,10,19,00,20,6.30
2018,10,19,00,21,6.30
2018,10,19,00,22,6.30
2018,10,19,00,23,6.30
2018,10,19,00,24,6.30
2018,10,19,00,25,6.30
2018,10,19,00,26,6.30
2018,10,19,00,27,6.30
2018,10,19,00,28,6.30
2018,10,19,00,29,6.20
2018,10,19,00,30,6.20
2018,10,19,00,31,6.20
2018,10,19,00,32,6.20
2018,10,19,00,33,6.20
2018,10,19,00,34,6.20
2018,10,19,00,35,6.20
2018,10,19,00,36,6.20
2018,10,19,00,37,6.20
2018,10,19,00,38,6.20
2018,10,19,00,39,6.20
2018,10,19,00,40,6.20
2018,10,19,00,41,6.20
2018,10,19,00,42,6.20
2018,10,19,00,43,6.20
2018,10,19,00,44,6.20
2018,10,19,00,45,6.20
2018,10,19,00,46,6.20
2018,10,19,00,47,6.20
2018,10,19,00,48,6.20
2018,10,19,00,49,6.20
2018,10,19,00,50,6.20
2018,10,19,00,51,6.20
2018,10,19,00,52,6.20
2018,10,19,00,53,6.20
2018,10,19,00,54,6.20
2018,10,19,00,55,6.20
2018,10,19,00,56,6.20
2018,10,19,00,57,6.20
2018,10,19,00,58,6.20
2018,10,19,00,59,6.20
2018,10,19,01,00,6.20
2018,10,19,01,01,6.20
2018,10,19,01,02,6.20
2018,10,19,01,03,6.20
2018,10,19,01,04,6.20
2018,10,19,01,05,6.20
2018,10,19,01,06,6.20
2018,10,19,01,07,6.20
2018,10,19,01,08,6.20
2018,10,19,01,09,6.20
2018,10,19,01,10,6.20
2018,10,19,01,11,6.10
2018,10,19,01,12,6.10
2018,10,19,01,13,6.10
2018,10,19,01,14,6.10
2018,10,19,01,15,6.10
2018,10,19,01,16,6.10
2018,10,19,01,17,6.10
2018,10,19,01,18,6.10
2018,10,19,01,19,6.10
2018,10,19,01,20,6.00
2018,10,19,01,21,6.00
2018,10,19,01,22,6.00
2018,10,19,01,23,6.00
2018,10,19,01,24,6.10
2018,10,19,01,25,6.10
2018,10,19,01,26,6.10
2018,10,19,01,27,6.00
2018,10,19,01,28,6.00
2018,10,19,01,29,6.10
2018,10,19,01,30,6.00
2018,10,19,01,31,6.00
2018,10,19,01,32,6.00
2018,10,19,01,33,6.00
2018,10,19,01,34,6.00
2018,10,19,01,35,6.00
2018,10,19,01,36,6.00
2018,10,19,01,37,6.00
2018,10,19,01,38,6.00
2018,10,19,01,39,6.00
2018,10,19,01,40,6.00
2018,10,19,01,41,6.00
2018,10,19,01,42,6.00
2018,10,19,01,43,6.00
2018,10,19,01,44,6.00
2018,10,19,01,45,6.00
2018,10,19,01,46,6.00
2018,10,19,01,47,6.00
2018,10,19,01,48,6.00
2018,10,19,01,49,6.00
2018,10,19,01,50,6.10
2018,10,19,01,51,6.10
2018,10,19,01,52,6.10
2018,10,19,01,53,6.10
2018,10,19,01,54,6.10
2018,10,19,01,55,6.10
2018,10,19,01,56,6.10
2018,10,19,01,57,6.10
2018,10,19,01,58,6.10
2018,10,19,01,59,6.00
2018,10,19,02,00,6.00
2018,10,19,02,01,6.00
2018,10,19,02,02,6.00
2018,10,19,02,03,6.00
2018,10,19,02,04,6.00
2018,10,19,02,05,5.90
2018,10,19,02,06,5.90
2018,10,19,02,07,5.90
2018,10,19,02,08,5.90
2018,10,19,02,09,5.90
2018,10,19,02,10,5.90
2018,10,19,02,11,5.90
2018,10,19,02,12,5.90
2018,10,19,02,13,5.90
2018,10,19,02,14,5.90
2018,10,19,02,15,5.90
2018,10,19,02,16,5.90
2018,10,19,02,17,5.90
2018,10,19,02,18,5.90
2018,10,19,02,19,5.90
2018,10,19,02,20,5.90
2018,10,19,02,21,5.90
2018,10,19,02,22,5.90
2018,10,19,02,23,5.90
2018,10,19,02,24,5.90
2018,10,19,02,25,5.90
2018,10,19,02,26,5.90
2018,10,19,02,27,5.90
2018,10,19,02,28,5.90
2018,10,19,02,29,5.90
2018,10,19,02,30,5.90
2018,10,19,02,31,5.90
2018,10,19,02,32,5.90
2018,10,19,02,33,5.90
2018,10,19,02,34,5.90
2018,10,19,02,35,5.90
2018,10,19,02,36,5.90
2018,10,19,02,37,5.90
2018,10,19,02,38,5.90
2018,10,19,02,39,5.90
2018,10,19,02,40,5.90
2018,10,19,02,41,5.90
2018,10,19,02,42,5.90
2018,10,19,02,43,5.90
2018,10,19,02,44,5.90
2018,10,19,02,45,5.90
2018,10,19,02,46,5.90
2018,10,19,02,47,5.90
2018,10,19,02,48,5.90
2018,10,19,02,49,5.90
2018,10,19,02,50,5.90
2018,10,19,02,51,5.90
2018,10,19,02,52,5.90
2018,10,19,02,53,5.90
2018,10,19,02,54,5.90
2018,10,19,02,55,5.90
2018,10,19,02,56,5.90
2018,10,19,02,57,5.90
2018,10,19,02,58,5.90
2018,10,19,02,59,5.90
2018,10,19,03,00,5.80
2018,10,19,03,01,5.80
2018,10,19,03,02,5.80
2018,10,19,03,03,5.90
2018,10,19,03,04,5.90
2018,10,19,03,05,5.90
2018,10,19,03,06,5.90
2018,10,19,03,07,5.90
2018,10,19,03,08,5.90
2018,10,19,03,09,5.90
2018,10,19,03,10,5.90
2018,10,19,03,11,5.90
2018,10,19,03,12,5.90
2018,10,19,03,13,5.80
2018,10,19,03,14,5.80
2018,10,19,03,15,5.80
2018,10,19,03,16,5.80
2018,10,19,03,17,5.80
2018,10,19,03,18,5.80
2018,10,19,03,19,5.80
2018,10,19,03,20,5.80
2018,10,19,03,21,5.80
2018,10,19,03,22,5.80
2018,10,19,03,23,5.80
2018,10,19,03,24,5.80
2018,10,19,03,25,5.80
2018,10,19,03,26,5.80
2018,10,19,03,27,5.80
2018,10,19,03,28,5.80
2018,10,19,03,29,5.80
2018,10,19,03,30,5.80
2018,10,19,03,31,5.80
2018,10,19,03,32,5.80
2018,10,19,03,33,5.70
2018,10,19,03,34,5.70
2018,10,19,03,35,5.70
2018,10,19,03,36,5.70
2018,10,19,03,37,5.70
2018,10,19,03,38,5.70
2018,10,19,03,39,5.70
2018,10,19,03,40,5.70
2018,10,19,03,41,5.70
2018,10,19,03,42,5.70
2018,10,19,03,43,5.70
2018,10,19,03,44,5.70
2018,10,19,03,45,5.70
2018,10,19,03,46,5.70
2018,10,19,03,47,5.70
2018,10,19,03,48,5.70
2018,10,19,03,49,5.70
2018,10,19,03,50,5.70
2018,10,19,03,51,5.70
2018,10,19,03,52,5.70
2018,10,19,03,53,5.70
2018,10,19,03,54,5.70
2018,10,19,03,55,5.70
2018,10,19,03,56,5.70
2018,10,19,03,57,5.70
2018,10,19,03,58,5.70
2018,10,19,03,59,5.70
2018,10,19,04,00,5.70
2018,10,19,04,01,5.70
2018,10,19,04,02,5.70
2018,10,19,04,03,5.70
2018,10,19,04,04,5.70
2018,10,19,04,05,5.70
2018,10,19,04,06,5.70
2018,10,19,04,07,5.70
2018,10,19,04,08,5.70
2018,10,19,04,09,5.70
2018,10,19,04,10,5.70
2018,10,19,04,11,5.70
2018,10,19,04,12,5.70
2018,10,19,04,13,5.70
2018,10,19,04,14,5.70
2018,10,19,04,15,5.70
2018,10,19,04,16,5.70
2018,10,19,04,17,5.70
2018,10,19,04,18,5.70
2018,10,19,04,19,5.70
2018,10,19,04,20,5.60
2018,10,19,04,21,5.60
2018,10,19,04,22,5.60
2018,10,19,04,23,5.60
2018,10,19,04,24,5.60
2018,10,19,04,25,5.60
2018,10,19,04,26,5.60
2018,10,19,04,27,5.60
2018,10,19,04,28,5.50
2018,10,19,04,29,5.50
2018,10,19,04,30,5.50
2018,10,19,04,31,5.50
2018,10,19,04,32,5.50
2018,10,19,04,33,5.50
2018,10,19,04,34,5.50
2018,10,19,04,35,5.50
2018,10,19,04,36,5.40
2018,10,19,04,37,5.40
2018,10,19,04,38,5.40
2018,10,19,04,39,5.40
2018,10,19,04,40,5.40
2018,10,19,04,41,5.40
2018,10,19,04,42,5.40
2018,10,19,04,43,5.40
2018,10,19,04,44,5.40
2018,10,19,04,45,5.40
2018,10,19,04,46,5.40
2018,10,19,04,47,5.40
2018,10,19,04,48,5.40
2018,10,19,04,49,5.40
2018,10,19,04,50,5.40
2018,10,19,04,51,5.40
2018,10,19,04,52,5.40
2018,10,19,04,53,5.30
2018,10,19,04,54,5.30
2018,10,19,04,55,5.30
2018,10,19,04,56,5.30
2018,10,19,04,57,5.30
2018,10,19,04,58,5.30
2018,10,19,04,59,5.40
2018,10,19,05,00,5.30
2018,10,19,05,01,5.30
2018,10,19,05,02,5.30
2018,10,19,05,03,5.30
2018,10,19,05,04,5.30
2018,10,19,05,05,5.30
2018,10,19,05,06,5.30
2018,10,19,05,07,5.30
2018,10,19,05,08,5.30
2018,10,19,05,09,5.30
2018,10,19,05,10,5.30
2018,10,19,05,11,5.30
2018,10,19,05,12,5.30
2018,10,19,05,13,5.20
2018,10,19,05,14,5.30
2018,10,19,05,15,5.30
2018,10,19,05,16,5.30
2018,10,19,05,17,5.30
2018,10,19,05,18,5.30
2018,10,19,05,19,5.30
2018,10,19,05,20,5.30
2018,10,19,05,21,5.30
2018,10,19,05,22,5.30
2018,10,19,05,23,5.30
2018,10,19,05,24,5.40
2018,10,19,05,25,5.40
2018,10,19,05,26,5.40
2018,10,19,05,27,5.40
2018,10,19,05,28,5.40
2018,10,19,05,29,5.40
2018,10,19,05,30,5.40
2018,10,19,05,31,5.50
2018,10,19,05,32,5.40
2018,10,19,05,33,5.50
2018,10,19,05,34,5.50
2018,10,19,05,35,5.50
2018,10,19,05,36,5.50
2018,10,19,05,37,5.50
2018,10,19,05,38,5.50
2018,10,19,05,39,5.50
2018,10,19,05,40,5.50
2018,10,19,05,41,5.50
2018,10,19,05,42,5.40
2018,10,19,05,43,5.40
2018,10,19,05,44,5.40
2018,10,19,05,45,5.40
2018,10,19,05,46,5.40
2018,10,19,05,47,5.40
2018,10,19,05,48,5.40
2018,10,19,05,49,5.40
2018,10,19,05,50,5.40
2018,10,19,05,51,5.30
2018,10,19,05,52,5.30
2018,10,19,05,53,5.30
2018,10,19,05,54,5.30
2018,10,19,05,55,5.30
2018,10,19,05,56,5.30
2018,10,19,05,57,5.30
2018,10,19,05,58,5.20
2018,10,19,05,59,5.20
2018,10,19,06,00,5.20
2018,10,19,06,01,5.20
2018,10,19,06,02,5.20
2018,10,19,06,03,5.20
2018,10,19,06,04,5.20
2018,10,19,06,05,5.20
2018,10,19,06,06,5.20
2018,10,19,06,07,5.20
2018,10,19,06,08,5.20
2018,10,19,06,09,5.20
2018,10,19,06,10,5.20
2018,10,19,06,11,5.20
2018,10,19,06,12,5.20
2018,10,19,06,13,5.20
2018,10,19,06,14,5.20
2018,10,19,06,15,5.20
2018,10,19,06,16,5.20
2018,10,19,06,17,5.20
2018,10,19,06,18,5.20
2018,10,19,06,19,5.20
2018,10,19,06,20,5.20
2018,10,19,06,21,5.20
2018,10,19,06,22,5.20
2018,10,19,06,23,5.20
2018,10,19,06,24,5.20
2018,10,19,06,25,5.20
2018,10,19,06,26,5.20
2018,10,19,06,27,5.20
2018,10,19,06,28,5.20
2018,10,19,06,29,5.20
2018,10,19,06,30,5.20
2018,10,19,06,31,5.20
2018,10,19,06,32,5.10
2018,10,19,06,33,5.10
2018,10,19,06,34,5.10
2018,10,19,06,35,5.10
2018,10,19,06,36,5.10
2018,10,19,06,37,5.10
2018,10,19,06,38,5.10
2018,10,19,06,39,5.10
2018,10,19,06,40,5.10
2018,10,19,06,41,5.10
2018,10,19,06,42,5.00
2018,10,19,06,43,5.10
2018,10,19,06,44,5.00
2018,10,19,06,45,5.00
2018,10,19,06,46,5.00
2018,10,19,06,47,5.00
2018,10,19,06,48,5.00
2018,10,19,06,49,5.00
2018,10,19,06,50,5.00
2018,10,19,06,51,5.00
2018,10,19,06,52,5.10
2018,10,19,06,53,5.10
2018,10,19,06,54,5.10
2018,10,19,06,55,5.10
2018,10,19,06,56,5.10
2018,10,19,06,57,5.00
2018,10,19,06,58,5.00
2018,10,19,06,59,5.00
2018,10,19,07,00,5.00
2018,10,19,07,01,5.00
2018,10,19,07,02,4.90
2018,10,19,07,03,4.90
2018,10,19,07,04,4.90
2018,10,19,07,05,4.90
2018,10,19,07,06,4.90
2018,10,19,07,07,4.90
2018,10,19,07,08,4.90
2018,10,19,07,09,4.90
2018,10,19,07,10,4.90
2018,10,19,07,11,4.90
2018,10,19,07,12,4.90
2018,10,19,07,13,4.90
2018,10,19,07,14,4.90
2018,10,19,07,15,4.90
2018,10,19,07,16,4.80
2018,10,19,07,17,4.80
2018,10,19,07,18,4.80
2018,10,19,07,19,4.80
2018,10,19,07,20,4.80
2018,10,19,07,21,4.80
2018,10,19,07,22,4.80
2018,10,19,07,23,4.90
2018,10,19,07,24,4.90
2018,10,19,07,25,4.90
2018,10,19,07,26,4.90
2018,10,19,07,27,4.90
2018,10,19,07,28,4.90
2018,10,19,07,29,4.90
2018,10,19,07,30,4.90
2018,10,19,07,31,4.90
2018,10,19,07,32,5.00
2018,10,19,07,33,5.00
2018,10,19,07,34,5.00
2018,10,19,07,35,5.00
2018,10,19,07,36,5.10
2018,10,19,07,37,5.10
2018,10,19,07,38,5.10
2018,10,19,07,39,5.10
2018,10,19,07,40,5.10
2018,10,19,07,41,5.10
2018,10,19,07,42,5.10
2018,10,19,07,43,5.10
2018,10,19,07,44,5.10
2018,10,19,07,45,5.10
2018,10,19,07,46,5.10
2018,10,19,07,47,5.10
2018,10,19,07,48,5.10
2018,10,19,07,49,5.10
2018,10,19,07,50,5.10
2018,10,19,07,51,5.10
2018,10,19,07,52,5.10
2018,10,19,07,53,5.10
2018,10,19,07,54,5.10
2018,10,19,07,55,5.10
2018,10,19,07,56,5.10
2018,10,19,07,57,5.10
2018,10,19,07,58,5.10
2018,10,19,07,59,5.10
2018,10,19,08,00,5.10
2018,10,19,08,01,5.10
2018,10,19,08,02,5.10
2018,10,19,08,03,5.10
2018,10,19,08,04,5.10
2018,10,19,08,05,5.10
2018,10,19,08,06,5.10
2018,10,19,08,07,5.10
2018,10,19,08,08,5.10
2018,10,19,08,09,5.10
2018,10,19,08,10,5.20
2018,10,19,08,11,5.20
2018,10,19,08,12,5.20
2018,10,19,08,13,5.20
2018,10,19,08,14,5.30
2018,10,19,08,15,5.30
2018,10,19,08,16,5.30
2018,10,19,08,17,5.30
2018,10,19,08,18,5.30
2018,10,19,08,19,5.40
2018,10,19,08,20,5.40
2018,10,19,08,21,5.40
2018,10,19,08,22,5.40
2018,10,19,08,23,5.40
2018,10,19,08,24,5.40
2018,10,19,08,25,5.40
2018,10,19,08,26,5.40
2018,10,19,08,27,5.40
2018,10,19,08,28,5.40
2018,10,19,08,29,5.40
2018,10,19,08,30,5.50
2018,10,19,08,31,5.50
2018,10,19,08,32,5.50
2018,10,19,08,33,5.60
2018,10,19,08,34,5.60
2018,10,19,08,35,5.60
2018,10,19,08,36,5.60
2018,10,19,08,37,5.70
2018,10,19,08,38,5.70
2018,10,19,08,39,5.70
2018,10,19,08,40,5.80
2018,10,19,08,41,5.80
2018,10,19,08,42,5.80
2018,10,19,08,43,5.90
2018,10,19,08,44,5.90
2018,10,19,08,45,6.00
2018,10,19,08,46,6.00
2018,10,19,08,47,6.00
2018,10,19,08,48,6.10
2018,10,19,08,49,6.10
2018,10,19,08,50,6.10
2018,10,19,08,51,6.20
2018,10,19,08,52,6.20
2018,10,19,08,53,6.30
2018,10,19,08,54,6.30
2018,10,19,08,55,6.40
2018,10,19,08,56,6.40
2018,10,19,08,57,6.40
2018,10,19,08,58,6.40
2018,10,19,08,59,6.50
2018,10,19,09,00,6.50
2018,10,19,09,01,6.50
2018,10,19,09,02,6.60
2018,10,19,09,03,6.60
2018,10,19,09,04,6.60
2018,10,19,09,05,6.70
2018,10,19,09,06,6.80
2018,10,19,09,07,6.80
2018,10,19,09,08,6.90
2018,10,19,09,09,6.90
2018,10,19,09,10,7.00
2018,10,19,09,11,7.00
2018,10,19,09,12,7.00
2018,10,19,09,13,7.10
2018,10,19,09,14,7.10
2018,10,19,09,15,7.10
2018,10,19,09,16,7.20
2018,10,19,09,17,7.20
2018,10,19,09,18,7.30
2018,10,19,09,19,7.30
2018,10,19,09,20,7.30
2018,10,19,09,21,7.40
2018,10,19,09,22,7.40
2018,10,19,09,23,7.50
2018,10,19,09,24,7.60
2018,10,19,09,25,7.70
2018,10,19,09,26,7.80
2018,10,19,09,27,7.90
2018,10,19,09,28,7.90
2018,10,19,09,29,8.00
2018,10,19,09,30,8.10
2018,10,19,09,31,8.20
2018,10,19,09,32,8.20
2018,10,19,09,33,8.30
2018,10,19,09,34,8.30
2018,10,19,09,35,8.40
2018,10,19,09,36,8.50
2018,10,19,09,37,8.50
2018,10,19,09,38,8.60
2018,10,19,09,39,8.70
2018,10,19,09,40,8.70
2018,10,19,09,41,8.80
2018,10,19,09,42,8.80
2018,10,19,09,43,8.90
2018,10,19,09,44,9.00
2018,10,19,09,45,9.00
2018,10,19,09,46,9.10
2018,10,19,09,47,9.20
2018,10,19,09,48,9.30
2018,10,19,09,49,9.40
2018,10,19,09,50,9.50
2018,10,19,09,51,9.60
2018,10,19,09,52,9.70
2018,10,19,09,53,9.80
2018,10,19,09,54,9.90
2018,10,19,09,55,9.90
2018,10,19,09,56,10.00
2018,10,19,09,57,10.10
2018,10,19,09,58,10.20
2018,10,19,09,59,10.30
2018,10,19,10,00,10.40
2018,10,19,10,01,10.50
2018,10,19,10,02,10.50
2018,10,19,10,03,10.60
2018,10,19,10,04,10.70
2018,10,19,10,05,10.70
2018,10,19,10,06,10.80
2018,10,19,10,07,10.80
2018,10,19,10,08,10.90
2018,10,19,10,09,10.90
2018,10,19,10,10,11.00
2018,10,19,10,11,11.10
2018,10,19,10,12,11.20
2018,10,19,10,13,11.20
2018,10,19,10,14,11.30
2018,10,19,10,15,11.30
2018,10,19,10,16,11.40
2018,10,19,10,17,11.40
2018,10,19,10,18,11.40
2018,10,19,10,19,11.50
2018,10,19,10,20,11.50
2018,10,19,10,21,11.60
2018,10,19,10,22,11.60
2018,10,19,10,23,11.70
2018,10,19,10,24,11.70
2018,10,19,10,25,11.70
2018,10,19,10,26,11.60
2018,10,19,10,27,11.50
2018,10,19,10,28,11.50
2018,10,19,10,29,11.40
2018,10,19,10,30,11.40
2018,10,19,10,31,11.40
2018,10,19,10,32,11.50
2018,10,19,10,33,11.50
2018,10,19,10,34,11.50
2018,10,19,10,35,11.50
2018,10,19,10,36,11.50
2018,10,19,10,37,11.40
2018,10,19,10,38,11.40
2018,10,19,10,39,11.40
2018,10,19,10,40,11.50
2018,10,19,10,41,11.60
2018,10,19,10,42,11.60
2018,10,19,10,43,11.60
2018,10,19,10,44,11.60
2018,10,19,10,45,11.70
2018,10,19,10,46,11.70
2018,10,19,10,47,11.70
2018,10,19,10,48,11.70
2018,10,19,10,49,11.70
2018,10,19,10,50,11.80
2018,10,19,10,51,11.80
2018,10,19,10,52,11.90
2018,10,19,10,53,11.90
2018,10,19,10,54,12.00
2018,10,19,10,55,12.00
2018,10,19,10,56,12.10
2018,10,19,10,57,12.10
2018,10,19,10,58,12.20
2018,10,19,10,59,12.30
2018,10,19,11,00,12.30
2018,10,19,11,01,12.40
2018,10,19,11,02,12.50
2018,10,19,11,03,12.50
2018,10,19,11,04,12.60
2018,10,19,11,05,12.60
2018,10,19,11,06,12.60
2018,10,19,11,07,12.60
2018,10,19,11,08,12.70
2018,10,19,11,09,12.70
2018,10,19,11,10,12.80
2018,10,19,11,11,12.80
2018,10,19,11,12,12.90
2018,10,19,11,13,12.90
2018,10,19,11,14,13.00
2018,10,19,11,15,13.10
2018,10,19,11,16,13.20
2018,10,19,11,17,13.20
2018,10,19,11,18,13.30
2018,10,19,11,19,13.30
2018,10,19,11,20,13.40
2018,10,19,11,21,13.40
2018,10,19,11,22,13.50
2018,10,19,11,23,13.50
2018,10,19,11,24,13.60
2018,10,19,11,25,13.60
2018,10,19,11,26,13.70
2018,10,19,11,27,13.70
2018,10,19,11,28,13.80
2018,10,19,11,29,13.80
2018,10,19,11,30,13.90
2018,10,19,11,31,14.00
2018,10,19,11,32,14.00
2018,10,19,11,33,14.10
2018,10,19,11,34,14.10
2018,10,19,11,35,14.20
2018,10,19,11,36,14.20
2018,10,19,11,37,14.30
2018,10,19,11,38,14.30
2018,10,19,11,39,14.40
2018,10,19,11,40,14.40
2018,10,19,11,41,14.40
2018,10,19,11,42,14.50
2018,10,19,11,43,14.50
2018,10,19,11,44,14.60
2018,10,19,11,45,14.60
2018,10,19,11,46,14.70
2018,10,19,11,47,14.70
2018,10,19,11,48,14.70
2018,10,19,11,49,14.80
2018,10,19,11,50,14.80
2018,10,19,11,51,14.80
2018,10,19,11,52,14.90
2018,10,19,11,53,14.90
2018,10,19,11,54,14.90
2018,10,19,11,55,14.90
2018,10,19,11,56,15.00
2018,10,19,11,57,15.00
2018,10,19,11,58,15.00
2018,10,19,11,59,15.10
2018,10,19,12,00,15.10
2018,10,19,12,01,15.10
2018,10,19,12,02,15.20
2018,10,19,12,03,15.20
2018,10,19,12,04,15.20
2018,10,19,12,05,15.20
2018,10,19,12,06,15.20
2018,10,19,12,07,15.20
2018,10,19,12,08,15.20
2018,10,19,12,09,15.20
2018,10,19,12,10,15.20
2018,10,19,12,11,15.30
2018,10,19,12,12,15.30
2018,10,19,12,13,15.30
2018,10,19,12,14,15.30
2018,10,19,12,15,15.30
2018,10,19,12,16,15.30
2018,10,19,12,17,15.40
2018,10,19,12,18,15.40
2018,10,19,12,19,15.40
2018,10,19,12,20,15.50
2018,10,19,12,21,15.50
2018,10,19,12,22,15.50
2018,10,19,12,23,15.40
2018,10,19,12,24,15.40
2018,10,19,12,25,15.40
2018,10,19,12,26,15.50
2018,10,19,12,27,15.50
2018,10,19,12,28,15.50
2018,10,19,12,29,15.40
2018,10,19,12,30,15.40
2018,10,19,12,31,15.40
2018,10,19,12,32,15.40
2018,10,19,12,33,15.30
2018,10,19,12,34,15.30
2018,10,19,12,35,15.30
2018,10,19,12,36,15.30
2018,10,19,12,37,15.30
2018,10,19,12,38,15.20
2018,10,19,12,39,15.20
2018,10,19,12,40,15.20
2018,10,19,12,41,15.20
2018,10,19,12,42,15.20
2018,10,19,12,43,15.20
2018,10,19,12,44,15.10
2018,10,19,12,45,15.10
2018,10,19,12,46,15.10
2018,10,19,12,47,15.00
2018,10,19,12,48,15.00
2018,10,19,12,49,14.90
2018,10,19,12,50,14.90
2018,10,19,12,51,14.80
2018,10,19,12,52,14.80
2018,10,19,12,53,14.70
2018,10,19,12,54,14.70
2018,10,19,12,55,14.60
2018,10,19,12,56,14.60
2018,10,19,12,57,14.60
2018,10,19,12,58,14.60
2018,10,19,12,59,14.60
2018,10,19,13,00,14.50
2018,10,19,13,01,14.50
2018,10,19,13,02,14.40
2018,10,19,13,03,14.40
2018,10,19,13,04,14.40
2018,10,19,13,05,14.40
2018,10,19,13,06,14.30
2018,10,19,13,07,14.30
2018,10,19,13,08,14.30
2018,10,19,13,09,14.30
2018,10,19,13,10,14.30
2018,10,19,13,11,14.30
2018,10,19,13,12,14.30
2018,10,19,13,13,14.30
2018,10,19,13,14,14.30
2018,10,19,13,15,14.30
2018,10,19,13,16,14.30
2018,10,19,13,17,14.30
2018,10,19,13,18,14.30
2018,10,19,13,19,14.20
2018,10,19,13,20,14.20
2018,10,19,13,21,14.20
2018,10,19,13,22,14.20
2018,10,19,13,23,14.20
2018,10,19,13,24,14.20
2018,10,19,13,25,14.20
2018,10,19,13,26,14.20
2018,10,19,13,27,14.20
2018,10,19,13,28,14.20
2018,10,19,13,29,14.20
2018,10,19,13,30,14.20
2018,10,19,13,31,14.20
2018,10,19,13,32,14.10
2018,10,19,13,33,14.10
2018,10,19,13,34,14.10
2018,10,19,13,35,14.10
2018,10,19,13,36,14.20
2018,10,19,13,37,14.20
2018,10,19,13,38,14.10
2018,10,19,13,39,14.10
2018,10,19,13,40,14.10
2018,10,19,13,41,14.10
2018,10,19,13,42,14.10
2018,10,19,13,43,14.10
2018,10,19,13,44,14.10
2018,10,19,13,45,14.00
2018,10,19,13,46,14.00
2018,10,19,13,47,14.00
2018,10,19,13,48,14.00
2018,10,19,13,49,14.00
2018,10,19,13,50,14.00
2018,10,19,13,51,14.00
2018,10,19,13,52,13.90
2018,10,19,13,53,13.90
2018,10,19,13,54,13.90
2018,10,19,13,55,14.00
2018,10,19,13,56,14.00
2018,10,19,13,57,14.00
2018,10,19,13,58,14.00
2018,10,19,13,59,14.00
2018,10,19,14,00,14.00
2018,10,19,14,01,14.00
2018,10,19,14,02,14.10
2018,10,19,14,03,14.10
2018,10,19,14,04,14.10
2018,10,19,14,05,14.10
2018,10,19,14,06,14.20
2018,10,19,14,07,14.20
2018,10,19,14,08,14.20
2018,10,19,14,09,14.20
2018,10,19,14,10,14.20
2018,10,19,14,11,14.30
2018,10,19,14,12,14.30
2018,10,19,14,13,14.30
2018,10,19,14,14,14.30
2018,10,19,14,15,14.30
2018,10,19,14,16,14.30
2018,10,19,14,17,14.30
2018,10,19,14,18,14.30
2018,10,19,14,19,14.40
2018,10,19,14,20,14.40
2018,10,19,14,21,14.40
2018,10,19,14,22,14.40
2018,10,19,14,23,14.40
2018,10,19,14,24,14.40
2018,10,19,14,25,14.40
2018,10,19,14,26,14.40
2018,10,19,14,27,14.40
2018,10,19,14,28,14.40
2018,10,19,14,29,14.40
2018,10,19,14,30,14.40
2018,10,19,14,31,14.40
2018,10,19,14,32,14.40
2018,10,19,14,33,14.40
2018,10,19,14,34,14.40
2018,10,19,14,35,14.40
2018,10,19,14,36,14.40
2018,10,19,14,37,14.40
2018,10,19,14,38,14.40
2018,10,19,14,39,14.40
2018,10,19,14,40,14.40
2018,10,19,14,41,14.50
2018,10,19,14,42,14.50
2018,10,19,14,43,14.50
2018,10,19,14,44,14.50
2018,10,19,14,45,14.50
2018,10,19,14,46,14.50
2018,10,19,14,47,14.50
2018,10,19,14,48,14.50
2018,10,19,14,49,14.50
2018,10,19,14,50,14.50
2018,10,19,14,51,14.50
2018,10,19,14,52,14.50
2018,10,19,14,53,14.50
2018,10,19,14,54,14.50
2018,10,19,14,55,14.50
2018,10,19,14,56,14.50
2018,10,19,14,57,14.50
2018,10,19,14,58,14.40
2018,10,19,14,59,14.40
2018,10,19,15,00,14.40
2018,10,19,15,01,14.40
2018,10,19,15,02,14.40
2018,10,19,15,03,14.40
2018,10,19,15,04,14.30
2018,10,19,15,05,14.30
2018,10,19,15,06,14.30
2018,10,19,15,07,14.30
2018,10,19,15,08,14.30
2018,10,19,15,09,14.30
2018,10,19,15,10,14.30
2018,10,19,15,11,14.30
2018,10,19,15,12,14.30
2018,10,19,15,13,14.30
2018,10,19,15,14,14.20
2018,10,19,15,15,14.20
2018,10,19,15,16,14.20
2018,10,19,15,17,14.10
2018,10,19,15,18,14.10
2018,10,19,15,19,14.10
2018,10,19,15,20,14.10
2018,10,19,15,21,14.00
2018,10,19,15,22,14.00
2018,10,19,15,23,14.00
2018,10,19,15,24,13.90
2018,10,19,15,25,13.90
2018,10,19,15,26,13.90
2018,10,19,15,27,13.90
2018,10,19,15,28,13.80
2018,10,19,15,29,13.80
2018,10,19,15,30,13.80
2018,10,19,15,31,13.70
2018,10,19,15,32,13.70
2018,10,19,15,33,13.70
2018,10,19,15,34,13.60
2018,10,19,15,35,13.60
2018,10,19,15,36,13.50
2018,10,19,15,37,13.50
2018,10,19,15,38,13.40
2018,10,19,15,39,13.40
2018,10,19,15,40,13.30
2018,10,19,15,41,13.30
2018,10,19,15,42,13.30
2018,10,19,15,43,13.20
2018,10,19,15,44,13.10
2018,10,19,15,45,13.00
2018,10,19,15,46,13.00
2018,10,19,15,47,12.90
2018,10,19,15,48,12.90
2018,10,19,15,49,12.80
2018,10,19,15,50,12.70
2018,10,19,15,51,12.70
2018,10,19,15,52,12.70
2018,10,19,15,53,12.60
2018,10,19,15,54,12.60
2018,10,19,15,55,12.50
2018,10,19,15,56,12.50
2018,10,19,15,57,12.40
2018,10,19,15,58,12.40
2018,10,19,15,59,12.30
2018,10,19,16,00,12.30
2018,10,19,16,01,12.30
2018,10,19,16,02,12.30
2018,10,19,16,03,12.20
2018,10,19,16,04,12.20
2018,10,19,16,05,12.10
2018,10,19,16,06,12.10
2018,10,19,16,07,12.10
2018,10,19,16,08,12.00
2018,10,19,16,09,12.00
2018,10,19,16,10,12.00
2018,10,19,16,11,11.90
2018,10,19,16,12,11.90
2018,10,19,16,13,11.90
2018,10,19,16,14,11.90
2018,10,19,16,15,11.90
2018,10,19,16,16,11.80
2018,10,19,16,17,11.80
2018,10,19,16,18,11.80
2018,10,19,16,19,11.80
2018,10,19,16,20,11.70
2018,10,19,16,21,11.70
2018,10,19,16,22,11.70
2018,10,19,16,23,11.70
2018,10,19,16,24,11.60
2018,10,19,16,25,11.60
2018,10,19,16,26,11.60
2018,10,19,16,27,11.50
2018,10,19,16,28,11.50
2018,10,19,16,29,11.50
2018,10,19,16,30,11.40
2018,10,19,16,31,11.40
2018,10,19,16,32,11.40
2018,10,19,16,33,11.30
2018,10,19,16,34,11.30
2018,10,19,16,35,11.30
2018,10,19,16,36,11.20
2018,10,19,16,37,11.20
2018,10,19,16,38,11.20
2018,10,19,16,39,11.10
2018,10,19,16,40,11.10
2018,10,19,16,41,11.10
2018,10,19,16,42,11.10
2018,10,19,16,43,11.00
2018,10,19,16,44,11.00
2018,10,19,16,45,10.90
2018,10,19,16,46,10.90
2018,10,19,16,47,10.90
2018,10,19,16,48,10.90
2018,10,19,16,49,10.80
2018,10,19,16,50,10.80
2018,10,19,16,51,10.80
2018,10,19,16,52,10.80
2018,10,19,16,53,10.80
2018,10,19,16,54,10.80
2018,10,19,16,55,10.80
2018,10,19,16,56,10.80
2018,10,19,16,57,10.70
2018,10,19,16,58,10.70
2018,10,19,16,59,10.70
2018,10,19,17,00,10.70
2018,10,19,17,01,10.60
2018,10,19,17,02,10.60
2018,10,19,17,03,10.60
2018,10,19,17,04,10.60
2018,10,19,17,05,10.50
2018,10,19,17,06,10.50
2018,10,19,17,07,10.50
2018,10,19,17,08,10.40
2018,10,19,17,09,10.40
2018,10,19,17,10,10.30
2018,10,19,17,11,10.30
2018,10,19,17,12,10.30
2018,10,19,17,13,10.30
2018,10,19,17,14,10.20
2018,10,19,17,15,10.20
2018,10,19,17,16,10.20
2018,10,19,17,17,10.10
2018,10,19,17,18,10.10
2018,10,19,17,19,10.10
2018,10,19,17,20,10.00
2018,10,19,17,21,10.00
2018,10,19,17,22,10.00
2018,10,19,17,23,9.90
2018,10,19,17,24,9.90
2018,10,19,17,25,9.90
2018,10,19,17,26,9.90
2018,10,19,17,27,9.80
2018,10,19,17,28,9.80
2018,10,19,17,29,9.80
2018,10,19,17,30,9.80
2018,10,19,17,31,9.80
2018,10,19,17,32,9.80
2018,10,19,17,33,9.80
2018,10,19,17,34,9.80
2018,10,19,17,35,9.80
2018,10,19,17,36,9.80
2018,10,19,17,37,9.80
2018,10,19,17,38,9.70
2018,10,19,17,39,9.70
2018,10,19,17,40,9.70
2018,10,19,17,41,9.70
2018,10,19,17,42,9.70
2018,10,19,17,43,9.70
2018,10,19,17,44,9.60
2018,10,19,17,45,9.60
2018,10,19,17,46,9.60